Location: Castiglione Fibocchi
(43.5333°N, 11.7667°E)
Time: 17:08:51
(UTC+00:00)

Meteor 1-24 Rocket - Pass Details

Date: 15 August 2020
Orbit: 789 x 928 km, 81.3° (Epoch: 17 September)

Event Time Altitude Azimuth Distance (km) Brightness Sun altitude
Rises 00:42:02 0° 347° (NNW) 3,345 7.6 -29.3°
Reaches altitude 10° 00:44:28 10° 346° (NNW) 2,394 6.7 -29.2°
Enters shadow 00:48:53 59° 323° (NW) 922 3.9 -28.8°
